Погода в Ужгороде

Погода в Ужгороде : погода сейчас, прогноз погоды и архив. Всё, что Вы хотите узнать о погоде в Ужгороде!

Поиск расширенной информации на нашем сайте:

Другие новости

Новости СМИ2

Главная страница сайта

Новости сайта

03.07.2017

Напоминаем, что на нашем специализированном сайте Метеоцентр.Азия вы можете получить высокодетализированные автоматические прогнозы погоды по пунктам России, СНГ и мира в авиационном формате (включающие направление и скорость ветра, видимость, явления погоды, количество и форму облачности, нижнюю и верхнюю границу облачности).


Погода в Ужгороде - сегодня

Время (UTC), дата Ветер
(°,м/с) 
Видим.   Явления Облачность Т
(°С)
Тd
(°С)
f(%) Тe
(°С)
Pmin
(гПа)
dP
(гПа)
Po
(мм)
O2
(г/м3)
Тmin Tmax R s Состояние
почвы
12 20.10.17 150 (ЮВ) 10 км  {туман}  5/0 средняя 
[Ac trans]
+18.7 +10.3 58 +21  1017.9  -1  753  282           
15 20.10.17 тихо ()   10 км    4/0 верхняя 
[Ci fib]
+17.4 +12 71 +21  1017.8  -0.2  753  283           
18 20.10.17 тихо ()   2000 м  дымка  ясно 
+9.7 +8.6 93 +10  1018.8  0.6  753  292    +19.1       
21 20.10.17 тихо ()   0300 м  туман  ясно 
+7.7 +7.3 97 +8  1019.1  0.2  753  294           
00 21.10.17 тихо ()   0300 м  туман  ясно 
+8.2 +7.8 97 +8  1018.9  -0.1  753  293           
03 21.10.17 тихо ()   0300 м  туман  ясно 
+4 +3.8 99 +4  1018.5  -0.7  753  298           
06 21.10.17 тихо ()   0900 м  туман  8/0 средняя 
[Ac trans]
+4.7 +4.5 99 +5  1018.2  -0.2  753  297  +2.9         
09 21.10.17 тихо ()   3200 м  дымка{туман}  9/0 средняя 
[Ac trans]
+9.8 +9 95 +10  1017.8  -0.1  753  291           
12 21.10.17 350 (С) 3500 м  слаб. дождь{туман}  10/10 1200 м 
[Sc]
+11.4 +9.8 90 +14  1016.9  -0.9  752  289      0.0     
15 21.10.17 150 (ЮВ) 2700 м  в посл. час дождь  10/10 1260 м 
[Sc]
+11.7 +10.4 92 +15  1015.5  -1.3  751  288           
18 21.10.17 тихо ()   1000 м  дымка{дождь}  10/10 600 м 
[Sc]
+10.7 +10.2 97 +12  1016.7  1.1  752  290    +12     
21 21.10.17 тихо ()   0300 м  туман  ?/?  
+8.5 +8.2 98 +9  1016.8  752  292           
00 22.10.17 тихо ()   0300 м  туман  ясно 
+6.4 +6.4 100 +6  1017.1  0.2  752  295           
03 22.10.17 250 (З) 0300 м  туман  ясно 
+3.5 +3.5 100 +3  1017  -0.3  752  299           
06 22.10.17 тихо ()   0300 м  туман  ясно 
+4.7 +4.5 99 +5  1017.4  0.5  752  297  +3         
09 22.10.17 190 (Ю) 0300 м  туман  ?/?  
+7.6 +7.1 97 +9  1017.3  752  294           
12 22.10.17 140 (ЮВ) 4000 м  дымка{туман}  10/10 270 м 
[St]
+10.8 +9.2 90 +11  1016.1  -1  751  290           
15 22.10.17 тихо ()   10 км    8/4 600 м средняя 
[Sc|Ac trans]
+12 +8.6 80 +12  1014.1  -1.9  750  288           
18 22.10.17 тихо ()   3800 м  дымка  9/0 средняя 
[Ac trans]
+9.6 +8.4 92 +10  1013.7  -0.6  749  290    +12.2       
21 22.10.17 тихо ()   2000 м  дымка  10/10 900 м 
[Sc]
+9.6 +9.2 97 +10  1012.6  -1.1  749  290           
00 23.10.17 тихо ()   1000 м  слаб. дождь  10/10 450 м 
[Ns]
+9.7 +9 95 +10  1010.3  -2.1  725  280         
03 23.10.17 тихо ()   2000 м  слаб. дождь  10/10 800 м 
[Ns]
+9.8 +9.2 96 +10  1007.8  -2.5  745  288           
06 23.10.17 100 (В) 10 км  слаб. дождь  10/10 1200 м 
[Ns]
+10.8 +9.7 93 +13  1006.4  -1.3  744  287  +9.3       
09 23.10.17 тихо ()   4700 м  слаб. дождь  10/10 540 м 
[Ns]
+10.8 +10 95 +12  1006.5  0.1  744  287           
12 23.10.17 тихо ()   4000 м  слаб. дождь  10/10 500 м 
[Ns]
+11.8 +10.9 94 +14  1006.2  -0.2  744  285      11     
Время (UTC), дата Ветер
(°,м/с) 
Видим.   Явления Облачность Т
(°С)
Тd
(°С)
f(%) Тe
(°С)
Pmin
(гПа)
dP
(гПа)
Po
(мм)
O2
(г/м3)
Тmin Tmax R s Состояние
почвы

Для получения пояснительной информации подведите курсор к названию столбца.

ПОГОДА в Ужгороде - архив

Всё, что Вы хотите узнать о погоде в Ужгороде - удобно и подробно!

Выберите нужную дату (начиная с 1 января 2015* года) и нажмите кнопку "Найти".
Будут отображены архивные сводки погоды по пункту Ужгород, начиная с указанной даты.


Отображать данные в формате CSV (для использования в таблицах Excel)


Внимание! Наш архив погоды предназначен исключительно для личного некоммерческого использования в познавательных целях. Если Вам необходимы официальные справки о состоянии погоды (для производственных, юридических, коммерческих и т.п. целей), обращайтесь в органы Росгидромета.

*Примечание: данная дата относится к архиву по метеостанциям СССР (Россия, СНГ, Балтия).
Архив по метеостанциям Зарубежной Европы и Азии (кроме Китая) хранится 10 дней, по другим регионам земного шара (Китай, Африка, Америка, Австралия, Океания) - 1 день.

Ужгород - район местоположения метеостанции


Название, широта, долгота, высота метеостанции:
Ужгород 48.6°ш. 22.3°д. 124 м над ур. моря [Украина]

Дополнительная информация

В oтличие oт бoльшинства пoгoдных сайтoв мы публикуем пoдрoбную метеoинфoрмацию в детальнoм прoфессиoнальнoм фoрмате.

Характеристики температуры и влажнoсти вoздуха измеряются на высoте 2 м в тени вдали oт зданий и деревьев.
Скoрoсть ветра измеряется на высoте 10 м (на урoвне рoста челoвека скoрoсть ветра ниже в 1.5-2 раза). Если метеoстанция нахoдится в гoрoде или в лесу, тo скoрoсть ветра занижена на 2-4 м/с пo сравнению с oткрытым местoм. Скoрoсть ветра над акватoриями крупных рек и oзёр, а также на вершинах хoлмoв на 2-5 м/с выше, чем в oбычных услoвиях.
Атмoсфернoе давление в разных тoчках местнoсти мoжет значительнo oтличаться oт давления на метеoстанции, в зависимoсти oт услoвий рельефа (при пoдъёме на 10 м давление пoнижается примернo на 1 мм рт.ст.).